Home > Weather > Kitakyushu > Past weeks

Flag for Japan Past Weather in Kitakyushu, Japan — Yesterday and Last 2 Weeks

Now
84 °F

Partly sunny.


Feels Like: 94 °F
Forecast: 77 / 85 °F
Wind: 10 mph from East

Location: Kitakyushu Airport

Current Time: Jul 24, 2016 at 12:07:40 PM

Latest Report: Jul 24, 2016 at 11:00 AM


Visibility: N/A

Pressure: 29.89 "Hg

Humidity: 79%

Dew Point: 77 °F

Location of KitakyushuLocation

Past Weather in Kitakyushu — Graph

°F

Kitakyushu Temperature Yesterday

Maximum temperature yesterday: 84 °F (at 2:00 PM)
Minimum temperature yesterday: 75 °F (at 12:00 AM)
Average temperature yesterday: 80 °F

High & Low Weather Summary for the Past Weeks

 TemperatureHumidityPressure
High90 °F (Jul 21, 1:50 PM)94% (Jul 9, 11:00 AM)29.89 "Hg (Jul 9, 11:00 AM)
Low73 °F (Jul 15, 11:00 PM)49% (Jul 21, 4:00 PM)29.50 "Hg (Jul 14, 12:00 PM)
Average80 °F76%29.72 "Hg
* Reported Jul 9 11:00 AM — Jul 24 11:00 AM, Kitakyushu, Weather by CustomWeather, © 2016

Note: Actual official high and low records may vary slightly from our data, if they occured in-between our weather recording intervals... More about our weather records

Advertising

Kitakyushu Weather History for the Previous 24 Hours

Scroll right to see more
 ConditionsComfort  
Time TempWeatherWind HumidityBarometerVisibility
11:00 AM
Sun, Jul 24
84 °FPartly sunny.10 mph79%29.89 "HgN/A
10:00 AM82 °FPartly sunny.6 mph79%29.89 "HgN/A
9:00 AM82 °FScattered clouds.8 mph79%29.89 "HgN/A
8:00 AM82 °FScattered clouds.12 mph79%29.89 "HgN/A
7:00 AM81 °FScattered clouds.14 mph84%29.86 "HgN/A
6:00 AM81 °FPartly sunny.1 mph84%29.86 "HgN/A
5:00 AM79 °FPassing clouds.5 mph89%29.86 "HgN/A
4:00 AM81 °FPassing clouds.1 mph84%29.83 "HgN/A
3:00 AM81 °FPartly cloudy.3 mph84%29.83 "HgN/A
2:00 AM81 °FPassing clouds.3 mph84%29.83 "HgN/A
1:00 AM82 °FPassing clouds.7 mph79%29.83 "HgN/A
12:00 AM81 °FPassing clouds.12 mph84%29.86 "HgN/A
11:00 PM
Sat, Jul 23
79 °FPassing clouds.8 mph89%29.86 "HgN/A
10:00 PM81 °FPassing clouds.7 mph84%29.86 "HgN/A
9:00 PM81 °FPassing clouds.10 mph84%29.83 "HgN/A
8:00 PM81 °FPassing clouds.10 mph84%29.83 "HgN/A
7:00 PM81 °FPartly sunny.7 mph84%29.80 "HgN/A
6:00 PM81 °FPartly sunny.6 mph84%29.80 "HgN/A
5:00 PM82 °FPartly sunny.7 mph79%29.80 "HgN/A
4:00 PM82 °FPartly sunny.8 mph74%29.80 "HgN/A
3:00 PM84 °FPartly sunny.9 mph70%29.80 "HgN/A
2:00 PM84 °FScattered clouds.13 mph70%29.80 "HgN/A
1:00 PM82 °FPartly sunny.14 mph74%29.83 "HgN/A
12:00 PM82 °FPartly sunny.13 mph74%29.83 "HgN/A
Weather by CustomWeather, © 2016

See weather overviewHow to use our weather pages